[[{"header":{"parameterUnit":"m.s-1","parameterCategory":1,"la1":30.2991,"la2":30.254,"lo1":-89.0895,"lo2":-89.0444,"dy":0.0017,"dx":0.0017,"nx":28,"ny":28,"refTime":"2025-08-17T03:00:00:Z","depth":0,"parameterNumber":2,"parameterNumberName":"U-component_of_WINDS"},"data":[0,0,0,0,0,0,0,0,0,0,0,0,0,0,0,0,0,0,0,0,0,0,0,0,0,0,0,0,0,0,0,0,0,0,0,0,0,0,0,0,0,0,0,0,0,0,0,0,0,0,0,0,0,0,0,0,0,0,0.4932,0.4932,0,0.4929,0.4929,0.4929,0.4935,0.4936,0.4936,0.4936,0.4932,0.4932,0.4932,0,0,0,0,0,0,0,0,0,0,0,0,0,0.4941,0.4941,0.4932,0.4932,0.4932,0.4929,0.4929,0.4929,0.4935,0.4936,0.4936,0.4936,0.4932,0.4932,0.4932,0,0,0,0,0,0,0,0,0,0,0,0,0,0.4938,0.4941,0.4932,0.4935,0.4935,0.4929,0.4929,0.4929,0.4935,0.4936,0.4936,0.4936,0.4932,0.4932,0.4932,0.4923,0,0,0.493,0.493,0,0,0,0,0,0,0,0,0.4938,0.4937,0.4934,0.4934,0.4935,0.4933,0.4931,0.4927,0.4935,0.4935,0.4936,0.4936,0.4932,0.4932,0.4931,0.4923,0.4923,0.493,0.493,0.493,0.493,0,0,0,0,0,0,0,0.4938,0.4937,0.4931,0.4934,0.4934,0.4936,0.4935,0.493,0.4932,0.4935,0.4936,0.4935,0.4932,0.4931,0.4931,0.4923,0.493,0.493,0.493,0.4929,0.4908,0.4907,0,0,0,0,0,0,0.4938,0.4938,0.4931,0.4931,0.4937,0.4935,0.4935,0.4933,0.4932,0.4932,0.4935,0.4936,0.4932,0.4931,0.493,0.492,0.493,0.4929,0.4929,0.4908,0.4908,0.4907,0,0,0,0,0,0,0.4938,0.4938,0.4931,0.4934,0.4934,0.4935,0.4933,0.4933,0.4932,0.4932,0.4932,0.4933,0.4932,0.4931,0.4925,0.492,0.4929,0.4929,0.4908,0.4908,0.4908,0.49,0,0,0,0,0,0,0.4939,0.4938,0.4934,0.4934,0.4933,0.4926,0.4932,0.4933,0.4931,0.4932,0.493,0.4931,0.4932,0.4925,0.4924,0.492,0.4928,0.4909,0.4908,0.4908,0.49,0.4899,0.4898,0,0,0,0,0,0.4939,0.4932,0.4934,0.4933,0.493,0.4925,0.4925,0.4927,0.4931,0.4927,0.4928,0.4931,0.4921,0.4925,0.4924,0.4919,0.4909,0.4908,0.4908,0.4901,0.4899,0.4898,0,0,0,0,0,0,0.4931,0.4932,0.4934,0.4927,0.4926,0.4926,0.4922,0.4925,0.4923,0.4923,0.4926,0.4925,0.4919,0.4918,0.4922,0.491,0.4916,0.4915,0.4911,0.4909,0.4908,0.4908,0.4928,0,0,0,0,0,0.4929,0.4925,0.4926,0.492,0.4919,0.4921,0.4919,0.4921,0.492,0.4919,0.4919,0.4918,0.4914,0.4912,0.4909,0.4901,0.49,0.4897,0.4895,0.4894,0.4893,0.4889,0.4887,0.4905,0.4905,0.4905,0,0,0.4923,0.4923,0.4921,0.4918,0.4918,0.4914,0.4921,0.4916,0.4914,0.4919,0.4913,0.4913,0.4911,0.4904,0.4901,0.4903,0.4888,0.4894,0.4893,0.4892,0.4888,0.4886,0.4885,0.4905,0.4905,0.4905,0,0,0.4911,0.4911,0.4906,0.4906,0.4905,0.4906,0.4905,0.4905,0.4905,0.4899,0.4903,0.49,0.4894,0.4893,0.4891,0.488,0.4882,0.4879,0.4872,0.4868,0.4866,0.4865,0.486,0.4859,0.4878,0.4878,0.4878,0,0.4904,0.4899,0.4903,0.4899,0.4897,0.4902,0.4897,0.4896,0.4894,0.4893,0.4896,0.4889,0.4888,0.4881,0.4878,0.4877,0.4876,0.4879,0.4866,0.4865,0.4864,0.4859,0.4858,0.4877,0.4878,0.4878,0.4878,0,0.4891,0.4888,0.4883,0.4882,0.488,0.4875,0.4878,0.4875,0.4878,0.4879,0.4873,0.4872,0.4869,0.4868,0.487,0.4861,0.4862,0.4866,0.4871,0.4862,0.4857,0.4856,0.4877,0.4877,0.4877,0.4877,0,0,0.4873,0.4874,0.4872,0.4872,0.4872,0.4869,0.4865,0.4862,0.486,0.4859,0.4855,0.485,0.4854,0.4852,0.4854,0.485,0.4841,0.4854,0.4854,0.4851,0.483,0.4827,0.4825,0.4843,0.4843,0.4842,0.483,0,0.4861,0.4853,0.4857,0.4848,0.4845,0.485,0.4846,0.4846,0.4847,0.4844,0.4845,0.4841,0.4846,0.4845,0.4842,0.4843,0.4836,0.4844,0.4839,0.4838,0.4838,0.4823,0.482,0.4808,0.4829,0.4829,0.4828,0,0.4845,0.4844,0.4836,0.4837,0.4835,0.4832,0.483,0.4827,0.4827,0.4828,0.4826,0.4829,0.4825,0.4831,0.4824,0.4829,0.4827,0.4827,0.4827,0.4826,0.4832,0.4821,0.4805,0.4802,0.4826,0.4826,0.4826,0,0.4832,0.4829,0.4823,0.4823,0.4824,0.4821,0.4821,0.4821,0.4819,0.4818,0.4817,0.4815,0.4813,0.4811,0.4814,0.4818,0.4807,0.4813,0.4807,0.4807,0.4803,0.4803,0.4786,0.4804,0.4804,0.4804,0.4804,0,0.4818,0.4813,0.4817,0.4814,0.4808,0.4812,0.4806,0.4807,0.4807,0.4803,0.4808,0.4805,0.4808,0.4805,0.4807,0.4801,0.4801,0.4801,0.4801,0.48,0.48,0.4798,0.4799,0.4803,0.4803,0.4803,0.4803,0,0.4802,0.4805,0.4799,0.4801,0.4801,0.4797,0.4798,0.4795,0.4797,0.4792,0.4792,0.4794,0.4791,0.4793,0.479,0.4791,0.4783,0.4785,0.4783,0.4783,0.4777,0.4777,0.4757,0.4754,0.4775,0.4775,0.4774,0,0.4792,0.4788,0.479,0.4788,0.4788,0.4785,0.4784,0.4788,0.4786,0.4786,0.4782,0.478,0.4778,0.4772,0.4773,0.4771,0.4772,0.4765,0.4772,0.4771,0.4771,0.4771,0.4771,0.4764,0.4763,0.4763,0.4763,0,0.4774,0.4776,0.4774,0.4772,0.4771,0.477,0.4769,0.4767,0.4772,0.4769,0.4767,0.4765,0.4762,0.4759,0.4757,0.4757,0.476,0.4761,0.476,0.4758,0.4757,0.4756,0.4779,0.4761,0.4762,0.4762,0.4762,0.4762,0.476,0.4757,0.4757,0.4755,0.4755,0.4755,0.4752,0.4753,0.4751,0.4749,0.4752,0.4748,0.4748,0.4746,0.4746,0.4743,0.4745,0.4743,0.4742,0.4742,0.474,0.4758,0.4742,0.4743,0.4743,0.4743,0.4743,0,0.4741,0.4742,0.474,0.474,0.4738,0.4742,0.4742,0.474,0.4737,0.4737,0.4735,0.4731,0.4729,0.473,0.4728,0.4725,0.4727,0.4725,0.4724,0.4724,0.4738,0.474,0.4723,0.4723,0.4723,0.4723,0.4723,0.4723,0.4731,0.4726,0.4728,0.4723,0.4724,0.4721,0.472,0.472,0.472,0.4716,0.4714,0.4715,0.4716,0.4714,0.4711,0.4712,0.471,0.4707,0.4708,0.4721,0.4723,0.4725,0.4726,0.4707,0.4707,0.4694,0.4694,0.4694]},{"header":{"parameterUnit":"m.s-1","parameterCategory":1,"la1":30.2991,"la2":30.254,"lo1":-89.0895,"lo2":-89.0444,"dy":0.0017,"dx":0.0017,"nx":28,"ny":28,"refTime":"2025-08-17T03:00:00:Z","depth":0,"parameterNumber":3,"parameterNumberName":"V-component_of_WINDS"},"data":[0,0,0,0,0,0,0,0,0,0,0,0,0,0,0,0,0,0,0,0,0,0,0,0,0,0,0,0,0,0,0,0,0,0,0,0,0,0,0,0,0,0,0,0,0,0,0,0,0,0,0,0,0,0,0,0,0,0,-2.8262,-2.8263,0,-2.8386,-2.8387,-2.8389,-2.8384,-2.8383,-2.8381,-2.8379,-2.8504,-2.8509,-2.8514,0,0,0,0,0,0,0,0,0,0,0,0,0,-2.802,-2.8025,-2.8262,-2.8263,-2.8265,-2.8386,-2.8387,-2.8389,-2.8385,-2.8382,-2.838,-2.8378,-2.8503,-2.8509,-2.8515,0,0,0,0,0,0,0,0,0,0,0,0,0,-2.8133,-2.8026,-2.8262,-2.8277,-2.828,-2.8385,-2.8387,-2.839,-2.8385,-2.8382,-2.838,-2.8377,-2.8501,-2.8508,-2.8515,-2.8613,0,0,-2.8538,-2.8541,0,0,0,0,0,0,0,0,-2.8126,-2.8142,-2.8274,-2.8276,-2.828,-2.8367,-2.8348,-2.8464,-2.8386,-2.8345,-2.8379,-2.8376,-2.8461,-2.8471,-2.85,-2.8619,-2.8624,-2.8539,-2.8543,-2.8546,-2.8548,0,0,0,0,0,0,0,-2.8119,-2.8136,-2.8311,-2.8275,-2.8279,-2.8278,-2.8291,-2.837,-2.8416,-2.8348,-2.8348,-2.8363,-2.8462,-2.8493,-2.8503,-2.8626,-2.8539,-2.8545,-2.855,-2.8553,-2.8831,-2.8833,0,0,0,0,0,0,-2.8108,-2.813,-2.8307,-2.8315,-2.8195,-2.8284,-2.8299,-2.8342,-2.8415,-2.8424,-2.8365,-2.8363,-2.8482,-2.8494,-2.8507,-2.8627,-2.8546,-2.8553,-2.8558,-2.8828,-2.8831,-2.8835,0,0,0,0,0,0,-2.8103,-2.8124,-2.8302,-2.8222,-2.8245,-2.8291,-2.8339,-2.8345,-2.8377,-2.8428,-2.8436,-2.8389,-2.848,-2.8497,-2.8587,-2.8631,-2.8557,-2.8563,-2.8824,-2.8829,-2.8833,-2.8866,0,0,0,0,0,0,-2.8096,-2.8122,-2.8159,-2.8223,-2.8249,-2.838,-2.8342,-2.835,-2.8389,-2.8387,-2.8452,-2.846,-2.8479,-2.8576,-2.8594,-2.864,-2.8569,-2.8821,-2.8826,-2.8832,-2.8861,-2.887,-2.8879,0,0,0,0,0,-2.8087,-2.8163,-2.8161,-2.8183,-2.8297,-2.8382,-2.8397,-2.8418,-2.8393,-2.8431,-2.8464,-2.8458,-2.8623,-2.8585,-2.8606,-2.8654,-2.8818,-2.8825,-2.8831,-2.8857,-2.8869,-2.8879,0,0,0,0,0,0,-2.8103,-2.8172,-2.8171,-2.827,-2.832,-2.8381,-2.843,-2.843,-2.8488,-2.8484,-2.8507,-2.8521,-2.8612,-2.8642,-2.8598,-2.8752,-2.8717,-2.8728,-2.8729,-2.8741,-2.875,-2.8741,-2.8575,0,0,0,0,0,-2.8118,-2.8182,-2.8238,-2.832,-2.8346,-2.8384,-2.8422,-2.8433,-2.8486,-2.8508,-2.8547,-2.8598,-2.8662,-2.8703,-2.8764,-2.8865,-2.8879,-2.8908,-2.8917,-2.8925,-2.8934,-2.899,-2.9004,-2.8856,-2.8856,-2.8856,0,0,-2.815,-2.8195,-2.8234,-2.8325,-2.8365,-2.843,-2.8402,-2.8472,-2.852,-2.8518,-2.8606,-2.8636,-2.8695,-2.8791,-2.8835,-2.8819,-2.8978,-2.8933,-2.8938,-2.8944,-2.8998,-2.9012,-2.9024,-2.8861,-2.886,-2.8859,0,0,-2.8241,-2.8282,-2.8355,-2.8397,-2.8458,-2.8483,-2.8501,-2.8562,-2.8583,-2.8671,-2.8671,-2.8729,-2.8837,-2.8879,-2.8915,-2.9022,-2.9019,-2.9042,-2.9089,-2.9143,-2.9155,-2.9165,-2.9204,-2.9218,-2.9051,-2.9051,-2.9051,0,-2.8273,-2.8371,-2.8393,-2.8464,-2.8503,-2.8505,-2.8579,-2.8618,-2.8697,-2.8724,-2.8705,-2.8841,-2.8881,-2.8987,-2.9013,-2.9042,-2.9062,-2.9034,-2.9152,-2.9162,-2.9172,-2.9209,-2.9224,-2.9053,-2.9053,-2.9053,-2.9052,0,-2.8407,-2.8476,-2.8527,-2.8604,-2.865,-2.8722,-2.8753,-2.8797,-2.8805,-2.8832,-2.8921,-2.8969,-2.904,-2.9066,-2.9074,-2.9173,-2.9161,-2.9147,-2.9112,-2.9188,-2.9224,-2.9238,-2.9057,-2.9056,-2.9055,-2.9054,0,0,-2.8513,-2.86,-2.8619,-2.8654,-2.8722,-2.8775,-2.8847,-2.8917,-2.8954,-2.9008,-2.9069,-2.9161,-2.9149,-2.9189,-2.9202,-2.9249,-2.9332,-2.9229,-2.923,-2.9247,-2.9444,-2.9455,-2.9471,-2.933,-2.9332,-2.9335,-2.9439,0,-2.8611,-2.874,-2.8761,-2.8874,-2.8937,-2.894,-2.9002,-2.9051,-2.9078,-2.9135,-2.9164,-2.923,-2.9207,-2.9232,-2.9279,-2.9312,-2.9372,-2.9304,-2.9387,-2.9389,-2.9372,-2.949,-2.9502,-2.9598,-2.9453,-2.9456,-2.9457,0,-2.8744,-2.8802,-2.8922,-2.8982,-2.9009,-2.9065,-2.9131,-2.9186,-2.9241,-2.9257,-2.9303,-2.931,-2.9385,-2.9346,-2.9449,-2.9403,-2.9438,-2.9459,-2.9463,-2.9472,-2.9428,-2.9502,-2.9629,-2.9644,-2.9479,-2.9478,-2.9476,0,-2.881,-2.8918,-2.9003,-2.9033,-2.9105,-2.9144,-2.9176,-2.9229,-2.927,-2.9327,-2.9354,-2.9419,-2.9455,-2.9505,-2.9529,-2.9499,-2.9631,-2.9594,-2.9646,-2.9646,-2.9674,-2.9672,-2.9809,-2.9696,-2.9696,-2.9695,-2.9695,0,-2.8918,-2.8991,-2.9033,-2.9086,-2.9168,-2.9191,-2.9271,-2.9302,-2.9349,-2.9407,-2.9413,-2.9467,-2.9496,-2.9555,-2.9574,-2.9657,-2.9673,-2.9688,-2.9692,-2.9688,-2.9686,-2.9711,-2.9705,-2.9699,-2.9698,-2.9698,-2.9697,0,-2.9005,-2.9037,-2.913,-2.9191,-2.9208,-2.9265,-2.9317,-2.9368,-2.9395,-2.9468,-2.9487,-2.9529,-2.9598,-2.9627,-2.9712,-2.9726,-2.982,-2.9819,-2.9802,-2.9804,-2.9854,-2.9849,-3.0013,-3.0035,-2.9906,-2.9907,-2.9908,0,-2.9073,-2.9129,-2.9196,-2.9236,-2.9269,-2.9333,-2.9375,-2.94,-2.9443,-2.951,-2.9553,-2.9623,-2.968,-2.9791,-2.9828,-2.9893,-2.9894,-2.9947,-2.9904,-2.9898,-2.9896,-2.9892,-2.9898,-2.9955,-2.9956,-2.9957,-2.9958,0,-2.9189,-2.9202,-2.9263,-2.9329,-2.9379,-2.9432,-2.9484,-2.9516,-2.9549,-2.9597,-2.9668,-2.9713,-2.98,-2.9869,-2.9937,-2.9969,-2.9969,-2.9971,-2.9987,-2.9983,-2.9971,-2.9979,-2.9824,-2.9968,-2.9967,-2.9966,-2.9965,-2.9965,-2.9269,-2.9319,-2.9375,-2.9442,-2.9483,-2.9532,-2.9583,-2.9616,-2.9676,-2.975,-2.976,-2.9837,-2.989,-2.9981,-3.0016,-3.0076,-3.0063,-3.0085,-3.0091,-3.0096,-3.01,-2.9961,-3.0088,-3.0088,-3.0088,-3.0088,-3.0087,0,-2.9387,-2.9422,-2.9484,-2.9556,-2.9609,-2.9605,-2.9663,-2.9707,-2.9774,-2.9824,-2.9881,-2.9963,-3.003,-3.0073,-3.014,-3.018,-3.0182,-3.0197,-3.0194,-3.0202,-3.0107,-3.0087,-3.0194,-3.0194,-3.0194,-3.0194,-3.0194,-3.0194,-2.9454,-2.9539,-2.9558,-2.9664,-2.9699,-2.9774,-2.9807,-2.9852,-2.9892,-2.9984,-3.004,-3.0067,-3.0115,-3.0186,-3.0247,-3.0258,-3.0283,-3.0299,-3.0309,-3.022,-3.0208,-3.0198,-3.0179,-3.0304,-3.0304,-3.0398,-3.0399,-3.04]}]]